Wind_Speed
50 50 51 51 50 50 49 49 49 50 50 50 50 50 51 51 52 52 52 53 53 53 53 53 54 55 56 57 57 57 58 58 58 57 58 58 58 60 60 61 62 63 63
50 50 50 49 49 48 48 48 48 49 49 49 50 50 50 51 51 51 51 51 51 51 51 51 52 53 53 54 55 55 56 56 56 56 56 56 56 57 59 59 60 61 62
49 49 49 48 47 47 47 47 47 47 48 48 48 48 48 48 49 49 49 49 49 48 48 49 50 51 52 52 53 54 54 55 55 55 54 55 55 55 56 57 58 59 60
47 47 47 46 46 45 45 45 46 46 46 45 46 45 46 46 46 47 47 47 47 46 46 47 47 49 50 51 52 52 53 54 54 54 54 53 54 55 55 56 56 57 58
45 45 45 44 44 44 44 44 43 43 44 44 44 44 44 44 44 45 45 46 46 46 45 45 46 47 48 49 50 51 52 52 53 53 53 54 54 55 55 55 55 56 56
45 44 43 43 43 43 43 43 42 42 42 42 42 42 42 42 42 43 44 45 45 45 45 44 44 45 46 47 48 50 50 51 52 52 52 53 53 54 55 55 55 55 55
44 43 42 42 42 42 42 42 42 41 41 41 41 41 41 41 42 42 43 43 44 44 44 44 44 44 45 46 48 49 49 50 51 52 52 51 52 53 54 54 54 54 54
42 41 41 41 41 41 41 40 40 40 40 40 40 40 40 40 41 41 41 42 42 42 43 44 44 44 45 45 47 48 49 49 51 51 51 51 52 52 52 53 54 54 54
41 41 40 41 41 40 39 39 38 38 37 38 38 38 39 39 39 40 41 40 40 40 41 42 43 44 44 44 45 46 47 48 50 50 49 49 49 49 50 51 52 53 53
39 39 39 39 39 38 38 37 37 37 36 37 37 37 37 37 37 38 38 38 38 38 39 40 41 42 43 43 44 44 44 46 47 48 47 47 47 48 48 49 49 50 51
38 38 38 38 38 37 37 37 37 36 36 36 37 36 36 36 36 36 36 36 36 36 36 37 37 38 39 40 40 41 41 42 44 45 45 45 45 46 46 47 48 48 49
37 38 37 37 37 36 36 36 36 36 35 36 35 35 35 35 35 34 35 35 35 34 34 35 34 35 35 36 37 38 39 41 42 43 43 43 43 44 45 46 46 48 48
37 37 37 36 36 35 35 35 35 34 34 35 35 35 35 35 34 34 34 34 33 33 33 33 33 33 34 35 36 37 38 39 41 41 42 43 42 42 43 44 46 47 47
36 36 35 35 35 35 35 34 34 34 34 34 34 34 34 34 34 34 34 33 33 32 32 32 32 32 33 34 35 36 37 38 39 40 40 42 42 42 42 42 43 44 45
35 34 34 34 33 33 33 33 33 33 33 33 33 32 33 33 33 33 33 33 33 32 32 32 31 32 32 33 34 35 35 36 37 38 39 40 41 41 41 41 41 42 42
33 33 31 31 31 31 31 31 32 33 33 32 32 31 31 31 31 31 32 32 32 32 32 32 31 32 32 33 34 34 35 35 35 36 36 38 39 40 40 40 40 39 40
32 31 31 30 30 30 29 29 29 31 32 32 31 30 29 29 30 30 31 31 31 32 32 31 31 31 32 32 32 33 33 33 34 34 34 35 36 38 38 39 39 38 38
30 30 30 30 30 29 29 29 29 29 29 30 29 29 28 28 29 29 29 30 30 30 30 30 30 31 31 31 31 31 31 32 32 32 32 32 33 35 36 37 37 37 37
30 30 30 29 28 28 28 29 29 28 28 28 27 27 27 27 27 27 27 28 28 28 28 29 29 29 30 30 29 28 28 29 30 30 31 31 31 32 33 34 35 36 36
29 29 29 28 27 27 27 27 27 27 27 27 26 26 26 26 26 26 26 26 26 26 27 27 27 27 28 27 27 26 26 27 27 28 29 30 30 31 31 32 33 34 34
28 28 28 27 27 27 27 26 26 26 26 25 25 25 25 24 24 25 25 25 25 25 25 25 25 25 24 24 24 25 25 25 26 26 26 26 27 28 29 30 31 31 32
28 27 27 26 26 26 26 26 25 25 25 24 24 24 24 23 23 23 23 23 23 23 23 23 23 23 22 22 22 22 23 23 24 24 24 24 24 25 25 26 28 28 29
27 27 26 26 25 26 26 26 25 25 25 24 24 23 22 22 21 21 21 21 21 21 22 22 22 21 21 20 20 20 20 21 21 21 21 21 22 22 23 23 24 25 26
26 26 26 25 25 26 26 26 25 25 24 23 22 22 21 20 20 19 19 19 20 20 20 20 20 20 19 19 19 19 19 19 19 18 19 19 20 20 21 21 22 22 23
25 25 25 25 25 25 26 26 25 24 24 23 22 21 21 20 19 19 19 19 19 19 19 20 20 19 19 18 18 18 17 17 17 17 17 17 18 18 19 19 20 21 22
25 25 25 26 25 25 25 25 25 24 23 23 22 21 21 20 19 19 19 19 18 18 18 19 19 19 19 18 18 17 17 16 16 16 16 17 17 18 19 19 19 19 20
Wind_Direction
287 288 287 287 286 285 283 282 280 279 278 277 276 275 273 272 272 271 270 270 269 268 267 266 264 263 261 259 258 258 257 257 257 256 255 255 255 255 254 254 253 252 251
288 288 288 287 286 285 283 282 281 280 279 278 277 276 275 274 273 272 271 270 269 268 266 265 264 262 260 258 257 257 257 256 257 256 256 255 255 254 254 253 253 252 252
290 289 288 288 286 285 284 283 282 281 280 279 278 277 276 275 274 273 271 270 269 268 266 265 264 262 260 259 258 257 257 256 256 256 255 255 255 255 254 253 253 253 252
292 291 289 288 287 286 285 285 283 282 281 280 278 277 276 275 274 273 271 270 270 268 267 265 264 262 261 260 258 257 256 256 256 256 255 255 255 255 255 255 255 254 253
294 292 291 289 288 287 286 285 284 283 282 281 279 278 277 276 275 274 272 270 270 269 268 266 264 262 261 260 259 257 256 255 255 255 255 255 255 256 256 256 256 255 254
295 293 291 289 289 288 286 285 285 284 283 282 280 279 278 277 276 274 273 271 270 269 268 267 266 263 262 261 259 258 256 255 255 255 256 256 256 256 257 257 257 256 255
296 293 291 290 290 289 287 286 285 284 283 282 281 280 278 278 277 275 275 273 271 269 268 267 267 265 263 262 260 258 257 256 255 256 256 256 257 257 257 257 257 256 256
297 294 291 290 290 289 288 287 287 285 284 283 282 281 280 278 277 275 275 275 272 271 269 268 267 266 264 264 263 261 259 256 255 256 257 257 257 257 257 257 257 257 256
297 295 292 291 290 290 289 288 288 287 286 285 283 282 281 280 278 276 275 275 273 272 271 270 268 267 265 264 264 263 261 258 258 257 256 255 255 256 257 257 257 257 257
297 296 294 293 291 290 289 289 288 287 286 286 285 284 282 281 280 279 277 276 274 273 272 272 271 268 266 264 264 264 262 260 258 257 256 255 255 255 256 256 256 257 257
298 297 296 294 292 290 290 290 288 287 286 286 285 284 282 281 280 280 279 278 276 275 274 274 272 270 268 266 265 264 263 261 259 258 257 257 256 256 255 256 256 257 258
300 299 298 295 293 292 292 291 290 288 287 286 285 283 282 281 281 280 280 280 278 277 276 274 272 271 269 267 266 266 264 263 261 259 258 258 257 256 256 256 257 257 258
301 300 299 297 295 294 293 292 291 290 288 286 284 283 282 282 281 281 281 280 279 278 277 275 273 272 271 270 269 268 267 265 263 261 260 258 258 258 258 258 258 258 258
303 302 300 298 296 295 294 293 292 290 289 287 284 283 283 282 281 281 280 278 278 278 277 275 274 274 273 272 271 270 269 267 265 263 261 259 258 257 258 258 258 258 258
304 303 301 300 298 297 296 295 293 291 290 288 286 284 282 281 280 279 278 277 276 277 277 276 274 274 273 272 272 272 270 269 267 265 262 259 258 257 258 258 258 257 258
305 304 303 301 300 299 298 296 295 294 293 291 288 285 283 282 280 280 279 278 277 277 277 278 277 275 274 274 273 272 271 269 268 266 264 261 259 258 257 257 257 257 257
305 304 303 303 302 300 299 298 297 296 296 295 292 287 284 283 282 281 279 278 278 277 277 278 278 277 277 276 275 273 270 269 268 267 265 263 260 258 257 257 257 257 256
306 305 305 304 304 302 301 301 299 297 295 294 292 289 286 285 285 283 280 279 279 279 278 279 279 280 279 278 277 275 272 270 268 267 266 265 263 260 258 257 256 256 256
306 306 306 306 306 304 303 303 302 301 298 294 291 290 289 287 287 285 283 280 280 280 281 282 281 281 281 280 279 277 274 271 270 267 266 265 264 262 259 258 256 255 256
307 307 308 308 308 307 307 306 306 305 302 298 294 292 290 288 286 284 283 282 281 282 282 283 284 284 283 281 279 278 276 274 271 269 268 267 265 264 261 258 256 255 255
306 307 308 309 309 309 309 309 309 309 307 303 299 295 292 289 287 285 283 282 281 282 283 283 284 283 283 281 280 279 277 276 274 272 269 268 266 265 262 259 257 256 257
305 306 308 307 307 309 310 309 310 310 310 307 303 299 296 293 291 289 286 284 283 283 284 283 283 284 284 283 282 280 278 276 274 272 269 268 268 267 265 261 257 257 258
306 307 307 306 306 308 310 311 311 311 310 308 307 304 299 296 294 292 289 286 285 285 286 286 286 286 286 286 284 282 280 279 276 273 270 268 267 267 266 264 260 258 258
306 307 307 307 307 308 310 311 311 311 310 310 308 305 302 299 296 294 291 289 288 286 286 286 286 286 285 286 286 284 283 281 278 275 272 270 269 269 268 266 262 260 259
305 306 307 307 307 307 308 310 311 311 310 309 309 307 304 301 298 294 291 290 290 290 288 287 285 284 285 286 286 285 283 282 279 276 274 271 269 269 269 266 263 260 259
304 305 306 306 307 307 307 308 310 310 309 308 308 307 304 301 298 296 294 292 291 290 289 288 285 283 285 286 286 284 282 281 279 278 275 272 271 270 270 268 266 264 262
Height
5571 5568 5564 5560 5556 5553 5550 5547 5545 5542 5541 5539 5538 5537 5536 5535 5535 5534 5535 5534 5535 5535 5536 5537 5538 5540 5542 5544 5546 5549 5552 5554 5559 5565 5568 5571 5573 5576 5580 5583 5587 5591 5596
5558 5554 5550 5546 5542 5539 5536 5533 5531 5529 5527 5525 5524 5522 5521 5521 5520 5519 5519 5519 5519 5519 5520 5521 5522 5523 5525 5527 5530 5533 5535 5538 5541 5546 5550 5553 5556 5559 5562 5565 5569 5573 5578
5544 5540 5536 5532 5529 5525 5522 5520 5517 5515 5513 5511 5509 5508 5507 5506 5505 5505 5504 5504 5504 5504 5505 5506 5507 5508 5510 5512 5514 5516 5519 5522 5524 5528 5533 5536 5539 5542 5545 5548 5552 5556 5560
5530 5526 5523 5519 5515 5512 5509 5506 5504 5501 5499 5497 5496 5494 5493 5492 5491 5490 5490 5490 5490 5490 5491 5491 5492 5493 5495 5496 5498 5501 5503 5506 5508 5512 5516 5520 5523 5526 5528 5532 5535 5539 5542
5517 5513 5510 5506 5503 5499 5496 5494 5491 5488 5486 5484 5482 5481 5479 5478 5477 5477 5476 5476 5476 5476 5477 5477 5478 5479 5480 5481 5483 5485 5487 5490 5493 5496 5500 5503 5507 5509 5512 5515 5518 5521 5525
5505 5501 5497 5494 5490 5487 5484 5482 5479 5476 5474 5471 5470 5468 5467 5465 5464 5463 5463 5463 5463 5463 5463 5464 5464 5465 5466 5467 5468 5470 5472 5474 5477 5480 5483 5487 5491 5493 5495 5498 5501 5504 5510
5493 5488 5485 5482 5479 5476 5473 5470 5467 5464 5462 5459 5458 5456 5454 5453 5451 5450 5449 5449 5449 5449 5450 5450 5451 5451 5452 5453 5454 5455 5457 5459 5461 5464 5467 5471 5474 5478 5480 5482 5484 5486 5491
5481 5477 5473 5470 5467 5464 5461 5458 5455 5453 5450 5448 5446 5444 5443 5441 5439 5438 5437 5436 5436 5436 5436 5437 5437 5438 5438 5439 5440 5441 5443 5445 5447 5449 5453 5456 5457 5459 5462 5465 5467 5470 5475
5470 5466 5462 5459 5456 5453 5450 5447 5444 5441 5439 5437 5435 5433 5431 5429 5427 5426 5425 5424 5424 5424 5423 5423 5424 5424 5425 5425 5426 5427 5429 5430 5431 5433 5436 5438 5441 5443 5445 5447 5450 5453 5457
5460 5456 5452 5448 5445 5442 5439 5436 5433 5431 5428 5426 5424 5421 5420 5418 5416 5414 5413 5412 5412 5412 5411 5411 5411 5411 5411 5410 5411 5413 5414 5416 5417 5419 5421 5424 5426 5428 5430 5432 5434 5437 5440
5450 5445 5441 5437 5434 5431 5428 5425 5422 5420 5418 5415 5413 5411 5409 5407 5405 5403 5402 5401 5400 5400 5399 5399 5398 5398 5398 5398 5398 5399 5401 5402 5403 5405 5407 5409 5411 5413 5415 5417 5419 5421 5424
5439 5435 5431 5427 5424 5420 5418 5415 5412 5409 5407 5404 5402 5400 5398 5396 5394 5393 5391 5390 5389 5389 5388 5388 5387 5386 5386 5386 5386 5387 5388 5389 5390 5392 5394 5396 5398 5400 5402 5404 5406 5407 5409
5429 5425 5421 5417 5413 5410 5407 5404 5401 5398 5396 5394 5391 5390 5388 5386 5384 5382 5381 5380 5379 5378 5377 5377 5376 5376 5375 5375 5375 5375 5375 5376 5377 5379 5381 5383 5385 5386 5388 5390 5392 5394 5395
5419 5415 5411 5407 5404 5400 5397 5394 5391 5388 5385 5383 5381 5379 5377 5375 5374 5372 5371 5370 5369 5368 5367 5366 5366 5365 5365 5364 5364 5364 5364 5364 5365 5366 5368 5370 5371 5373 5374 5376 5378 5380 5382
5409 5405 5401 5398 5394 5391 5387 5384 5381 5378 5375 5373 5371 5369 5367 5366 5363 5362 5360 5360 5359 5358 5357 5356 5356 5355 5354 5354 5353 5353 5353 5352 5353 5354 5355 5357 5358 5360 5361 5363 5365 5366 5368
5400 5396 5393 5389 5385 5382 5378 5375 5371 5368 5365 5362 5360 5358 5357 5355 5353 5352 5350 5349 5349 5348 5347 5346 5345 5345 5344 5343 5343 5342 5342 5342 5342 5342 5343 5344 5346 5347 5349 5350 5352 5354 5356
5392 5388 5384 5381 5377 5373 5370 5367 5363 5360 5356 5353 5351 5349 5347 5345 5344 5342 5341 5340 5339 5338 5337 5336 5335 5335 5334 5333 5332 5332 5331 5331 5331 5331 5332 5333 5334 5335 5337 5338 5340 5342 5344
5384 5380 5376 5373 5369 5365 5362 5358 5355 5352 5349 5345 5342 5339 5338 5336 5335 5333 5332 5331 5330 5328 5328 5327 5326 5325 5324 5323 5322 5322 5321 5321 5321 5321 5321 5322 5323 5324 5325 5327 5329 5330 5332
5376 5373 5369 5365 5361 5358 5354 5351 5347 5344 5340 5337 5334 5332 5329 5328 5326 5324 5323 5322 5321 5320 5319 5318 5317 5316 5314 5313 5312 5311 5311 5311 5311 5311 5311 5312 5313 5313 5315 5316 5318 5319 5321
5368 5365 5361 5358 5354 5350 5347 5343 5340 5336 5332 5329 5326 5324 5322 5320 5318 5317 5315 5314 5313 5312 5311 5310 5309 5307 5306 5305 5304 5303 5302 5302 5302 5301 5302 5302 5303 5303 5304 5305 5307 5309 5311
5361 5357 5354 5351 5347 5344 5340 5336 5333 5329 5325 5322 5319 5316 5314 5313 5311 5310 5308 5307 5306 5304 5303 5302 5301 5299 5298 5297 5296 5295 5294 5294 5293 5293 5293 5293 5293 5294 5294 5295 5297 5299 5300
5354 5350 5347 5344 5341 5337 5334 5330 5326 5322 5319 5316 5313 5310 5307 5306 5304 5302 5301 5299 5298 5297 5296 5295 5294 5292 5291 5290 5288 5287 5286 5286 5285 5285 5285 5285 5285 5285 5285 5286 5288 5289 5291
5346 5343 5340 5337 5334 5331 5327 5324 5320 5316 5313 5310 5307 5304 5301 5299 5297 5296 5294 5293 5292 5291 5289 5288 5287 5286 5284 5283 5282 5281 5280 5279 5278 5278 5278 5278 5278 5278 5278 5279 5280 5281 5282
5339 5336 5333 5330 5327 5324 5321 5318 5314 5311 5307 5304 5301 5298 5296 5294 5292 5290 5288 5287 5286 5284 5283 5282 5281 5280 5278 5277 5276 5275 5273 5272 5271 5271 5271 5271 5271 5271 5272 5272 5273 5274 5275
5332 5329 5327 5324 5321 5318 5315 5311 5308 5305 5301 5299 5296 5293 5291 5288 5286 5284 5283 5281 5280 5278 5277 5276 5275 5274 5272 5271 5270 5269 5268 5267 5266 5265 5265 5265 5265 5265 5265 5266 5266 5267 5267
5325 5322 5320 5317 5314 5311 5308 5305 5302 5299 5296 5293 5290 5288 5285 5283 5281 5279 5277 5276 5274 5273 5271 5270 5269 5268 5266 5265 5264 5263 5262 5261 5261 5260 5259 5259 5259 5259 5259 5259 5260 5260 5261